Regional Weather Roundup
Issued by NWS

Home | Current Version | Previous Version | Text Only | Print | Product List | Glossary On
Versions: 1 2 3 4 5 6 7 8 9 10 11 12 13 14 15 16 17 18 19 20 21 22 23 24 25 26 27 28
000
ASUS45 KPSR 280010
RWRAZ

ARIZONA HOURLY REGIONAL WEATHER ROUNDUP
NATIONAL WEATHER SERVICE PHOENIX AZ
500 PM MST TUE SEP 27 2016

NOTE: FAIR INDICATES FEW OR NO CLOUDS BELOW 12,000 FEET WITH NO
SIGNIFICANT WEATHER AND/OR OBSTRUCTIONS TO VISIBILITY.

AZZ001>003-036-280100-
NORTHWEST ARIZONA

CITY           SKY/WX    TMP DP  RH WIND       PRES   REMARKS
BULLHEAD CITY  SUNNY     90  48  24 S8        29.86F
KINGMAN        PTSUNNY   81  48  31 NE8       30.01F
6HR MIN TEMP:  63; 6HR MAX TEMP:  83; 6HR PCP:  0.01;

$$

AZZ004>008-015-016-018-280100-
NORTH CENTRAL ARIZONA

CITY           SKY/WX    TMP DP  RH WIND       PRES   REMARKS
GRAND CANYON   MOSUNNY   67  40  37 NE15      30.25R
6HR MIN TEMP:  64; 6HR MAX TEMP:  69;

PRESCOTT       MOSUNNY   71  44  37 E9        30.12F
6HR MIN TEMP:  65; 6HR MAX TEMP:  71; 6HR PCP: TRACE;

FLAGSTAFF      MOSUNNY   64  44  48 E9        30.22F
6HR MIN TEMP:  55; 6HR MAX TEMP:  66;

PAYSON         MOSUNNY   70  46  43 SW5       30.15F
PAGE           PTSUNNY   79  33  19 SW6       30.09F
6HR MIN TEMP:  71; 6HR MAX TEMP:  82;

$$

AZZ009>014-017-280100-
NORTHEAST ARIZONA

CITY           SKY/WX    TMP DP  RH WIND       PRES   REMARKS
WINSLOW        PTSUNNY   76  45  33 N7        30.11F
6HR MIN TEMP:  69; 6HR MAX TEMP:  79;

SAINT JOHNS    PTSUNNY   72  42  34 N9        30.13F
6HR MIN TEMP:  70; 6HR MAX TEMP:  78; 6HR PCP: TRACE;

WINDOW ROCK    LGT RAIN  63  40  42 NE17G32   30.24F
6HR MIN TEMP:  59; 6HR MAX TEMP:  74; 6HR PCP: TRACE;

SHOW LOW       RAIN      54  50  87 S5        30.22F
$$

AZZ023-280100-
GREATER PHOENIX AREA

CITY           SKY/WX    TMP DP  RH WIND       PRES   REMARKS
PHOENIX        MOSUNNY   88  49  25 NE6       29.86F
6HR MIN TEMP:  78; 6HR MAX TEMP:  88;

BUCKEYE        SUNNY     86  48  26 E8        29.89F
GLENDALE       MOSUNNY   88  48  25 E5        29.89F
LUKE AFB       SUNNY     87  49  26 E7        29.87F
6HR MIN TEMP:  80; 6HR MAX TEMP:  87;

DEER VALLEY    MOSUNNY   86  47  25 E8        29.89F
6HR MIN TEMP:  77; 6HR MAX TEMP:  86; 6HR PCP: TRACE;

SCOTTSDALE     SUNNY     86  46  24 SE5       29.90F
6HR MIN TEMP:  76; 6HR MAX TEMP:  87; 6HR PCP: TRACE;

MESA-FALCON    PTSUNNY  N/A N/A N/A N12       29.86F
MESA-GATEWAY   MOSUNNY   88  50  27 SE10      29.89F
CHANDLER       MOSUNNY   88  50  27 SE9       29.88F
$$

AZZ027-028-280100-
SOUTHWEST MARICOPA COUNTY AND PINAL COUNTY

CITY           SKY/WX    TMP DP  RH WIND       PRES   REMARKS
CASA GRANDE    SUNNY     88  50  27 NE10G18   29.90S
6HR MIN TEMP:  75; 6HR MAX TEMP:  88;

GILA BEND      MOSUNNY   89  49  25 NE13      29.83F
6HR MIN TEMP:  82; 6HR MAX TEMP:  90;

$$

AZZ503-504-507>509-280100-
SOUTHEAST ARIZONA

CITY           SKY/WX    TMP DP  RH WIND       PRES   REMARKS
TUCSON         PTSUNNY   82  53  36 E8        29.96F
6HR MIN TEMP:  76; 6HR MAX TEMP:  83;

DAVIS-MONTHAN  PTSUNNY   80  53  38 NE8       29.95F
6HR MIN TEMP:  75; 6HR MAX TEMP:  82;

RYAN FIELD     SUNNY     82  55  39 E14       29.95F
NOGALES        PTSUNNY   79  55  43 N7        30.01F
6HR MIN TEMP:  73; 6HR MAX TEMP:  80; 6HR PCP: TRACE;

SIERRA VISTA   MOSUNNY   73  54  50 E8        30.08F
6HR MIN TEMP:  64; 6HR MAX TEMP:  75;

DOUGLAS        MOSUNNY   75  52  44 E12       30.05F
6HR MIN TEMP:  69; 6HR MAX TEMP:  78;

SAFFORD        MOSUNNY   78  50  37 S13       30.02F
6HR MIN TEMP:  65; 6HR MAX TEMP:  80;

$$

AZZ020-021-025-026-031-280100-
SOUTHWEST ARIZONA

CITY           SKY/WX    TMP DP  RH WIND       PRES   REMARKS
YUMA           PTSUNNY   89  50  26 E13       29.82F
6HR MIN TEMP:  87; 6HR MAX TEMP:  93;

$$

CAZ031-033-041-043-047-048-061-280100-
SOUTHERN CALIFORNIA

CITY           SKY/WX    TMP DP  RH WIND       PRES   REMARKS
DOWNTOWN L.A.  MOSUNNY   85  53  33 VRB6      29.82R
6HR MIN TEMP:  85; 6HR MAX TEMP:  97;

L.A. AIRPORT   MOSUNNY   82  52  35 W14       29.83R
6HR MIN TEMP:  82; 6HR MAX TEMP:  96;

SAN DIEGO      CLOUDY    82  55  39 S5        29.84S
6HR MIN TEMP:  81; 6HR MAX TEMP:  88;

BURBANK        MOSUNNY   89  47  23 S10       29.84R
6HR MIN TEMP:  88; 6HR MAX TEMP:  95;

ONTARIO        PTSUNNY   90  45  21 W14       29.84R
6HR MIN TEMP:  86; 6HR MAX TEMP:  97;

RIVERSIDE      PTSUNNY   91  45  20 SE12      29.84R
6HR MIN TEMP:  91; 6HR MAX TEMP:  98;

PALM SPRINGS   CLOUDY    87  50  27 S6        29.88F
6HR MIN TEMP:  85; 6HR MAX TEMP:  89;

EL CENTRO NAS  MOSUNNY   93  49  22 W7        29.82F
6HR MIN TEMP:  87; 6HR MAX TEMP:  95;

IMPERIAL       PTSUNNY   93  54  26 NW9       29.80F
6HR MIN TEMP:  88; 6HR MAX TEMP:  97;

BLYTHE         PTSUNNY   91  51  25 E10       29.84F
6HR MIN TEMP:  87; 6HR MAX TEMP:  93; 6HR PCP: TRACE;

NEEDLES        SUNNY     90  50  25 W3        29.88F
6HR MIN TEMP:  81; 6HR MAX TEMP:  91; 6HR PCP: TRACE;

$$

NVZ020-UTZ003-280100-
SOUTHERN NEVADA-UTAH

CITY           SKY/WX    TMP DP  RH WIND       PRES   REMARKS
LAS VEGAS      PTSUNNY   88  36  15 E5        29.94F
6HR MIN TEMP:  84; 6HR MAX TEMP:  90;

SALT LAKE CITY MOSUNNY   75  50  41 W10       30.11F
6HR MIN TEMP:  70; 6HR MAX TEMP:  77;

$$

NMZ009-TXZ055-280100-
NEW MEXICO-WEST TEXAS

CITY           SKY/WX    TMP DP  RH WIND       PRES   REMARKS
ALBUQUERQUE    MOSUNNY   76  36  23 NW5       30.18F
6HR MIN TEMP:  66; 6HR MAX TEMP:  77;

EL PASO        MOSUNNY   76  45  33 VRB3      30.12F
6HR MIN TEMP:  65; 6HR MAX TEMP:  77;

$$


........................KEY........................
SKY/WX - SKY CONDITION/WEATHER
TMP    - TEMPERATURE IN FAHRENHEIT
DP     - DEW POINT IN FAHRENHEIT
RH     - RELATIVE HUMIDITY IN PERCENT
WIND   - DIRECTION AND SPEED IN MILES PER HOUR (MPH)
VRB    - VARIABLE WIND DIRECTION
PRES   - MEAN SEA LEVEL PRESSURE IN INCHES OF MERCURY
         F - FALLING PRESSURE   R - RISING PRESSURE
         S - STEADY PRESSURE
VSB    - VISIBILITY IN MILES
HX     - HEAT INDEX IN FAHRENHEIT
WCI    - WIND CHILL INDEX IN FAHRENHEIT
TC     - TEMPERATURE IN CELSIUS WHICH IS ALSO KNOWN AS
         TEMPERATURE IN CENTIGRADE
AFB    - AIR FORCE BASE
         LUKE AFB IS LUKE AIR FORCE BASE
         DAVIS-MONTHAN IS DAVIS-MONTHAN AIR FORCE BASE
NAS    - NAVAL AIR STATION
         EL CENTRO NAS IS EL CENTRO NAVAL AIR STATION
N/A    - NOT AVAILABLE





USA.gov is the U.S. government's official web portal to all federal, state and local government web resources and services.